Retour au catalogue

STARLINK-30152

ActifCommunicationsVLEO
NORAD 56828·PAYLOAD·🇺🇸 United States

Lancé Jun 4, 2023 depuis Cape Canaveral Space Force Station

Loading…

Prochains Passages (prochaines 24 heures)

TLE

FraisSource: CelesTrak SupGP

Époque: Sep 15, 2026, 02:47 UTC

1 56828C 23079F   26258.11645833  .00056412  00000+0  20434-2 0  2584
2 56828  43.0002 117.3355 0001455 277.4452 235.3411 15.27547621    11

Suivez STARLINK-30152 en temps réel avec AllMySat

Download on the App Store